This is the latest recevied weather packets stored in our database for station/object RA1AMO-10. If no packets are shown the sender has not sent any weather packets the latest 10 day(s).
| Time | Temp. | Humidity | Pressure | Rain* | Wind** | Luminosity | Snow |
|---|---|---|---|---|---|---|---|
| 1777725160 | 16.67° C | 41% | 1008.5 hPa | - | - | - | - |
| 1777724260 | 15.56° C | 43% | 1008.5 hPa | - | - | - | - |
| 1777723360 | 14.44° C | 45% | 1008.6 hPa | - | - | - | - |
| 1777722460 | 14.44° C | 45% | 1008.6 hPa | - | - | - | - |
| 1777721560 | 15° C | 44% | 1008.7 hPa | - | - | - | - |
| 1777720670 | 15° C | 45% | 1008.7 hPa | - | - | - | - |
| 1777719770 | 18.33° C | 36% | 1008.4 hPa | - | - | - | - |
| 1777718871 | 16.67° C | 40% | 1008.4 hPa | - | - | - | - |
| 1777717959 | 16.11° C | 42% | 1008.5 hPa | - | - | - | - |
| 1777717059 | 16.11° C | 43% | 1008.7 hPa | - | - | - | - |
| 1777716159 | 15.56° C | 43% | 1008.8 hPa | - | - | - | - |
| 1777715259 | 15.56° C | 42% | 1008.8 hPa | - | - | - | - |
| 1777714358 | 15.56° C | 43% | 1009 hPa | - | - | - | - |
| 1777713458 | 15° C | 44% | 1009.1 hPa | - | - | - | - |
| 1777712558 | 15° C | 45% | 1009.2 hPa | - | - | - | - |
| 1777711657 | 13.89° C | 46% | 1009.3 hPa | - | - | - | - |
| 1777710757 | 13.33° C | 49% | 1009.4 hPa | - | - | - | - |
| 1777709855 | 12.78° C | 49% | 1009.6 hPa | - | - | - | - |
| 1777708954 | 12.78° C | 50% | 1009.9 hPa | - | - | - | - |
| 1777708054 | 12.22° C | 50% | 1010 hPa | - | - | - | - |
| 1777707154 | 11.67° C | 52% | 1010.3 hPa | - | - | - | - |
| 1777706254 | 11.67° C | 52% | 1010.2 hPa | - | - | - | - |
| 1777705354 | 11.11° C | 53% | 1010.3 hPa | - | - | - | - |
| 1777704454 | 11.11° C | 54% | 1010.4 hPa | - | - | - | - |
| 1777703553 | 10.56° C | 55% | 1010.4 hPa | - | - | - | - |
* Rain since midnight (hover to see other rain measurements)
** Current wind speed in m/s (hover to see current wind gust speed)